"startDT [UTC]","vpos","CH4 [ppm]","stdev(CH4) [ppm]","CO2 [ppm]","stdev(CO2) [ppm]","H2O [ppm]","stdev(H2O)","p_LGR [torr]","T_LGR [C]","mt1_LGR [us]","mt2_LGR [us]","T_ECpre [C]","T_EC1 [C]","T_EC2 [C]","p_inlet [hPa]","p_in [hPa]","p_out [hPa]","T_inlet [C]","RH_inlet [%]","dwpt_inlet [C]","T_vent [C]","RH_vent [%]","dwpt_vent [C]","flow_vent [l min-1]","flow_inlet [l min-1]","dwpt_sample [C]","T_room [C]"
2012-09-17 00:00:00,0.0,1.9294,0.0007,391.48,0.29,250.3,29.9,138.05,31.51,24.65,36.50,0.88,-26.88,-15.74,-47,42,-944,23.2,20.7,-0.5,23.4,2.1,-28.2,5.73,2.64,-27.0,28.8
2012-09-17 00:01:00,0.0,1.9287,0.0008,391.38,0.27,261.8,26.3,138.05,31.51,24.66,36.51,0.92,-26.86,-14.11,-47,42,-945,23.2,20.7,-0.5,23.3,2.1,-28.1,5.73,2.59,-26.9,28.8
2012-09-17 00:02:00,0.0,1.9288,0.0009,391.39,0.30,265.1,30.2,138.05,31.52,24.66,36.50,0.95,-26.83,-12.56,-47,42,-945,23.2,20.7,-0.5,23.3,2.1,-27.9,5.73,2.62,-26.9,28.8
2012-09-17 00:03:00,0.0,1.9296,0.0008,391.32,0.28,263.3,31.9,138.05,31.51,24.65,36.51,0.88,-26.81,-11.08,-47,42,-945,23.2,20.7,-0.5,23.4,2.1,-27.9,5.73,2.62,-26.9,28.7
2012-09-17 00:04:00,0.0,1.9292,0.0009,391.22,0.27,268.4,28.9,138.05,31.51,24.66,36.52,0.82,-26.79,-9.69,-46,42,-945,23.2,20.7,-0.5,23.4,2.1,-28.0,5.73,2.59,-26.9,28.8
2012-09-17 00:05:00,0.0,1.9295,0.0008,391.44,0.31,266.2,33.1,138.05,31.51,24.65,36.50,0.86,-26.76,-8.38,-47,42,-945,23.2,20.8,-0.5,23.4,2.1,-28.0,5.73,2.64,-26.9,28.8
2012-09-17 00:06:00,0.0,1.9296,0.0008,391.36,0.30,260.8,27.1,138.05,31.51,24.66,36.51,0.89,-26.73,-7.12,-46,42,-945,23.2,20.8,-0.4,23.4,2.1,-28.2,5.73,2.60,-26.9,28.8
2012-09-17 00:07:00,0.0,1.9296,0.0009,391.36,0.30,259.5,30.2,138.05,31.51,24.66,36.51,0.92,-26.71,-5.93,-47,42,-945,23.2,20.7,-0.5,23.4,2.1,-28.1,5.73,2.60,-26.9,28.9
2012-09-17 00:08:00,0.0,1.9301,0.0010,391.35,0.31,258.3,35.0,138.05,31.51,24.65,36.51,0.94,-26.68,-4.80,-46,42,-945,23.2,20.7,-0.5,23.4,2.1,-28.2,5.73,2.64,-27.0,28.8
2012-09-17 00:09:00,0.0,1.9298,0.0009,391.35,0.25,256.6,31.2,138.05,31.51,24.66,36.51,0.95,-26.65,-3.73,-47,42,-945,23.2,20.8,-0.5,23.4,2.1,-28.3,5.73,2.60,-27.0,28.8
2012-09-17 00:10:00,0.0,1.9301,0.0009,391.43,0.29,261.3,33.0,138.05,31.50,24.65,36.51,0.90,-26.63,-2.71,-47,42,-945,23.2,20.9,-0.4,23.4,2.1,-28.3,5.73,2.62,-27.0,28.8
2012-09-17 00:11:00,0.0,1.9297,0.0012,391.34,0.32,252.5,32.2,138.05,31.50,24.66,36.51,0.86,-26.61,-1.74,-46,42,-945,23.2,20.9,-0.4,23.4,2.0,-28.5,5.73,2.64,-27.0,28.9
2012-09-17 00:12:00,0.0,1.9301,0.0009,391.46,0.29,255.7,26.9,138.05,31.50,24.65,36.50,0.88,-26.58,-0.82,-47,42,-945,23.2,20.8,-0.4,23.4,2.0,-28.5,5.73,2.59,-27.1,28.8
2012-09-17 00:13:00,0.0,1.9301,0.0009,391.32,0.28,253.4,30.5,138.05,31.50,24.66,36.52,0.89,-26.56,0.07,-46,42,-945,23.2,20.9,-0.4,23.4,2.0,-28.6,5.73,2.63,-27.1,28.8
2012-09-17 00:14:00,0.0,1.9306,0.0008,391.44,0.27,250.4,27.3,138.05,31.50,24.65,36.51,0.90,-26.54,0.89,-46,42,-945,23.2,20.8,-0.5,23.4,2.0,-28.6,5.73,2.62,-27.1,28.9
2012-09-17 00:15:00,0.0,1.9303,0.0008,391.35,0.27,245.9,32.9,138.05,31.50,24.65,36.51,0.92,-26.53,1.67,-46,42,-945,23.2,20.8,-0.4,23.4,2.0,-28.6,5.73,2.59,-27.2,28.9
2012-09-17 00:16:00,0.0,1.9305,0.0008,391.48,0.28,239.6,33.3,138.05,31.50,24.66,36.50,0.93,-26.50,2.40,-46,42,-945,23.2,20.9,-0.4,23.4,2.0,-28.7,5.73,2.63,-27.2,28.9
2012-09-17 00:17:00,0.0,1.9305,0.0008,391.45,0.26,234.5,28.9,138.05,31.50,24.66,36.51,0.94,-26.48,2.96,-47,42,-945,23.2,21.0,-0.3,23.4,2.0,-28.7,5.73,2.62,-27.2,28.8
2012-09-17 00:18:00,0.0,1.9305,0.0010,391.48,0.34,235.1,30.3,138.05,31.50,24.66,36.51,0.94,-26.47,3.23,-46,42,-945,23.2,21.0,-0.3,23.4,2.0,-28.7,5.73,2.59,-27.2,28.8
2012-09-17 00:19:00,0.0,1.9307,0.0010,391.41,0.34,237.0,33.0,138.05,31.51,24.66,36.51,0.94,-26.45,3.41,-47,42,-945,23.2,21.0,-0.3,23.4,2.0,-28.8,5.73,2.64,-27.3,28.9
2012-09-17 00:20:00,0.0,1.9309,0.0009,391.44,0.29,243.0,32.1,138.05,31.51,24.65,36.51,0.91,-26.43,3.71,-46,42,-945,23.3,20.8,-0.4,23.4,1.9,-28.9,5.73,2.61,-27.3,28.8
2012-09-17 00:21:00,0.0,1.9308,0.0010,391.59,0.34,236.4,26.1,138.05,31.51,24.66,36.51,0.86,-26.41,4.21,-46,42,-945,23.3,20.8,-0.4,23.4,1.9,-28.9,5.73,2.59,-27.3,28.9
2012-09-17 00:22:00,0.0,1.9309,0.0010,391.47,0.31,235.9,31.2,138.05,31.51,24.66,36.51,0.87,-26.39,4.82,-47,42,-945,23.2,21.0,-0.3,23.4,2.0,-28.9,5.73,2.64,-27.3,28.8
2012-09-17 00:23:00,0.0,1.9309,0.0007,391.40,0.33,237.2,34.1,138.05,31.51,24.66,36.52,0.89,-26.38,5.40,-46,42,-944,23.2,20.8,-0.4,23.4,2.0,-28.9,5.73,2.61,-27.3,28.9
2012-09-17 00:24:00,0.0,1.9309,0.0010,391.46,0.22,233.0,28.0,138.05,31.51,24.66,36.51,0.91,-26.36,5.94,-46,42,-945,23.2,20.9,-0.4,23.4,2.0,-28.9,5.73,2.59,-27.4,28.8
2012-09-17 00:25:00,0.0,1.9313,0.0007,391.54,0.27,234.4,32.5,138.05,31.51,24.65,36.51,0.92,-26.35,6.45,-46,42,-945,23.2,21.0,-0.3,23.4,2.0,-28.9,5.73,2.64,-27.4,28.9
2012-09-17 00:26:00,0.0,1.9314,0.0007,391.58,0.32,237.8,33.3,138.05,31.51,24.65,36.51,0.91,-26.34,6.94,-46,42,-945,23.2,21.0,-0.4,23.4,1.9,-29.0,5.73,2.61,-27.4,28.9
2012-09-17 00:27:00,0.0,1.9313,0.0008,391.52,0.31,230.0,29.0,138.05,31.51,24.66,36.52,0.93,-26.32,7.41,-46,42,-945,23.2,21.1,-0.3,23.4,1.9,-28.9,5.73,2.60,-27.4,28.9
2012-09-17 00:28:00,0.0,1.9314,0.0009,391.58,0.30,227.1,27.8,138.05,31.51,24.65,36.50,0.93,-26.31,7.85,-46,42,-945,23.2,21.1,-0.3,23.4,1.9,-29.0,5.73,2.64,-27.4,29.0
2012-09-17 00:29:00,0.0,1.9316,0.0009,391.53,0.28,231.9,29.3,138.04,31.51,24.65,36.51,0.94,-26.29,8.28,-46,42,-945,23.2,20.9,-0.4,23.4,1.9,-28.9,5.73,2.61,-27.4,28.9
2012-09-17 00:30:00,0.0,1.9313,0.0010,391.42,0.31,228.2,30.2,138.04,31.51,24.65,36.51,0.93,-26.28,8.68,-46,42,-945,23.2,20.9,-0.4,23.4,2.0,-28.9,5.73,2.59,-27.4,28.9
2012-09-17 00:31:00,0.0,1.9310,0.0009,391.48,0.30,226.9,25.8,138.04,31.51,24.66,36.51,0.92,-26.27,9.07,-46,42,-945,23.2,20.8,-0.5,23.4,2.0,-28.9,5.73,2.63,-27.4,28.9
2012-09-17 00:32:00,0.0,1.9314,0.0008,391.42,0.24,233.8,25.9,138.04,31.51,24.65,36.51,0.90,-26.26,9.46,-46,42,-945,23.3,20.8,-0.5,23.4,2.0,-28.8,5.73,2.61,-27.4,28.9
2012-09-17 00:33:00,0.0,1.9314,0.0009,391.46,0.26,226.1,27.8,138.04,31.51,24.66,36.51,0.91,-26.25,9.84,-46,42,-945,23.2,20.8,-0.5,23.4,2.0,-28.9,5.73,2.59,-27.4,29.0
2012-09-17 00:34:00,0.0,1.9317,0.0009,391.51,0.26,235.3,31.0,138.04,31.51,24.65,36.50,0.90,-26.23,10.20,-46,42,-945,23.3,20.7,-0.5,23.4,1.9,-28.9,5.73,2.63,-27.4,28.9
2012-09-17 00:35:00,0.0,1.9313,0.0010,391.43,0.27,234.1,28.3,138.04,31.51,24.66,36.51,0.89,-26.23,10.55,-47,42,-945,23.3,20.6,-0.5,23.4,1.9,-29.0,5.73,2.61,-27.4,28.9
2012-09-17 00:36:00,0.0,1.9315,0.0008,391.58,0.28,230.4,27.4,138.05,31.50,24.66,36.50,0.91,-26.22,10.89,-46,42,-945,23.3,20.5,-0.6,23.4,1.9,-29.0,5.73,2.59,-27.4,28.9
2012-09-17 00:37:00,0.0,1.9320,0.0008,391.40,0.33,222.1,30.7,138.04,31.50,24.65,36.52,0.92,-26.21,11.22,-46,42,-945,23.3,20.6,-0.6,23.4,1.9,-29.0,5.73,2.63,-27.4,29.0
2012-09-17 00:38:00,0.0,1.9316,0.0008,391.49,0.26,223.5,29.4,138.04,31.50,24.66,36.51,0.91,-26.21,11.54,-46,42,-945,23.2,20.7,-0.5,23.4,1.9,-29.0,5.73,2.62,-27.4,28.9
2012-09-17 00:39:00,0.0,1.9313,0.0008,391.54,0.32,229.1,31.3,138.04,31.51,24.66,36.51,0.93,-26.20,11.85,-46,42,-945,23.3,20.7,-0.5,23.4,1.9,-29.0,5.73,2.58,-27.4,28.9
2012-09-17 00:40:00,0.0,1.9314,0.0009,391.38,0.27,224.3,33.5,138.05,31.50,24.66,36.52,0.93,-26.19,12.15,-46,42,-945,23.3,20.5,-0.6,23.4,1.9,-29.1,5.73,2.63,-27.4,28.9
2012-09-17 00:41:00,0.0,1.9312,0.0009,391.47,0.25,226.4,27.3,138.05,31.50,24.65,36.51,0.94,-26.18,12.43,-46,42,-945,23.2,20.4,-0.7,23.4,1.9,-29.0,5.73,2.62,-27.4,28.9
2012-09-17 00:42:00,0.0,1.9312,0.0009,391.47,0.33,225.6,32.1,138.05,31.50,24.66,36.51,0.93,-26.18,12.71,-46,42,-945,23.2,20.6,-0.6,23.4,1.9,-29.1,5.73,2.59,-27.4,29.0
2012-09-17 00:43:00,0.0,1.9314,0.0009,391.50,0.28,217.1,27.6,138.05,31.50,24.65,36.51,0.94,-26.17,12.98,-46,42,-945,23.3,20.7,-0.5,23.4,1.9,-29.1,5.73,2.63,-27.4,28.9
2012-09-17 00:44:00,0.0,1.9317,0.0008,391.43,0.30,226.1,29.3,138.05,31.50,24.65,36.51,0.94,-26.17,13.23,-46,42,-945,23.2,20.6,-0.6,23.4,1.9,-29.0,5.73,2.62,-27.4,28.9
2012-09-17 00:45:00,0.0,1.9315,0.0010,391.55,0.27,227.2,26.3,138.05,31.50,24.65,36.51,0.94,-26.16,13.47,-46,42,-945,23.3,20.7,-0.5,23.4,1.9,-29.0,5.73,2.59,-27.4,28.9
2012-09-17 00:46:00,0.0,1.9314,0.0010,391.54,0.30,224.7,33.2,138.05,31.50,24.66,36.51,0.93,-26.15,13.71,-46,42,-945,23.2,20.5,-0.6,23.4,1.9,-29.0,5.73,2.62,-27.4,28.9
2012-09-17 00:47:00,0.0,1.9312,0.0010,391.55,0.28,224.0,34.6,138.05,31.50,24.66,36.50,0.92,-26.15,13.93,-46,42,-945,23.3,20.4,-0.7,23.4,1.9,-29.0,5.73,2.62,-27.4,28.9
2012-09-17 00:48:00,0.0,1.9319,0.0010,391.47,0.38,223.2,29.9,138.04,31.50,24.65,36.51,0.90,-26.15,14.14,-46,42,-945,23.3,20.5,-0.6,23.4,1.9,-29.0,5.73,2.58,-27.4,29.0
2012-09-17 00:49:00,0.0,1.9318,0.0010,391.54,0.27,220.5,30.4,138.04,31.50,24.66,36.51,0.88,-26.14,14.35,-46,42,-945,23.3,20.4,-0.7,23.4,1.9,-29.0,5.73,2.62,-27.4,29.0
2012-09-17 00:50:00,0.0,1.9317,0.0010,391.52,0.30,222.6,36.9,138.04,31.50,24.65,36.50,0.90,-26.13,14.55,-46,42,-945,23.3,20.4,-0.6,23.5,1.9,-29.0,5.73,2.63,-27.4,29.0
2012-09-17 00:51:00,0.0,1.9318,0.0009,391.44,0.40,226.1,34.5,138.04,31.51,24.65,36.52,0.91,-26.13,14.74,-46,42,-945,23.3,20.2,-0.8,23.5,1.9,-29.0,5.73,2.59,-27.4,29.0
2012-09-17 00:52:00,0.0,1.9321,0.0009,391.60,0.24,226.1,31.2,138.04,31.51,24.65,36.50,0.91,-26.13,14.92,-46,42,-945,23.3,20.1,-0.9,23.5,1.9,-29.0,5.73,2.61,-27.4,29.0
2012-09-17 00:53:00,0.0,1.9323,0.0010,391.55,0.26,224.7,30.6,138.04,31.51,24.65,36.51,0.91,-26.12,15.09,-46,42,-945,23.3,20.4,-0.7,23.5,1.9,-29.0,5.73,2.63,-27.4,28.9
2012-09-17 00:54:00,0.0,1.9316,0.0009,391.51,0.25,217.7,30.0,138.04,31.51,24.65,36.51,0.92,-26.12,15.25,-46,42,-945,23.3,20.5,-0.6,23.5,1.9,-29.0,5.73,2.59,-27.4,29.0
2012-09-17 00:55:00,0.0,1.9319,0.0010,391.59,0.30,217.9,33.7,138.04,31.52,24.66,36.50,0.92,-26.11,15.42,-46,42,-945,23.3,20.4,-0.7,23.5,1.9,-29.0,5.73,2.60,-27.4,29.1
2012-09-17 00:56:00,0.0,1.9320,0.0008,391.47,0.31,227.6,31.7,138.04,31.52,24.65,36.51,0.93,-26.11,15.56,-46,42,-945,23.3,20.3,-0.7,23.5,1.9,-29.0,5.73,2.63,-27.4,29.0
2012-09-17 00:57:00,0.0,1.9319,0.0008,391.48,0.22,227.7,34.5,138.04,31.52,24.65,36.51,0.94,-26.11,15.71,-46,42,-945,23.3,20.3,-0.8,23.5,1.9,-29.0,5.73,2.61,-27.4,29.0
2012-09-17 00:58:00,0.0,1.9322,0.0009,391.49,0.32,226.9,33.9,138.04,31.52,24.65,36.52,0.94,-26.10,15.85,-46,42,-945,23.3,20.6,-0.5,23.5,1.9,-29.0,5.73,2.59,-27.4,29.0
2012-09-17 00:59:00,0.0,1.9316,0.0010,391.57,0.30,223.8,31.7,138.04,31.52,24.66,36.51,0.94,-26.10,15.99,-46,42,-945,23.3,20.4,-0.7,23.5,1.9,-29.0,5.73,2.63,-27.4,29.0
2012-09-17 01:00:00,0.0,1.9318,0.0009,391.50,0.28,220.1,32.9,138.04,31.52,24.65,36.51,0.94,-26.10,16.11,-46,42,-945,23.3,20.0,-1.0,23.5,1.9,-29.0,5.73,2.62,-27.4,29.0
2012-09-17 01:01:00,0.0,1.9318,0.0010,391.49,0.33,226.3,33.1,138.04,31.52,24.65,36.51,0.94,-26.10,16.24,-46,42,-945,23.3,19.9,-1.0,23.5,1.9,-29.0,5.73,2.59,-27.4,29.0
2012-09-17 01:02:00,0.0,1.9316,0.0009,391.49,0.23,224.6,28.7,138.04,31.52,24.65,36.51,0.94,-26.09,16.35,-46,42,-945,23.3,20.2,-0.8,23.5,1.9,-29.0,5.73,2.63,-27.5,29.0
2012-09-17 01:03:00,0.0,1.9321,0.0009,391.50,0.30,214.2,35.9,138.04,31.52,24.65,36.51,0.94,-26.09,16.47,-46,42,-945,23.3,20.4,-0.7,23.4,1.9,-29.2,5.73,2.62,-27.5,29.0
2012-09-17 01:04:00,0.0,1.9317,0.0010,391.40,0.33,215.2,28.7,138.05,31.52,24.66,36.52,0.94,-26.09,16.58,-46,42,-945,23.3,20.6,-0.5,23.5,1.9,-29.1,5.73,2.58,-27.5,29.0
2012-09-17 01:05:00,0.0,1.9318,0.0009,391.51,0.32,218.2,31.1,138.04,31.52,24.65,36.51,0.93,-26.09,16.67,-46,42,-945,23.3,20.6,-0.6,23.5,1.9,-29.2,5.73,2.62,-27.4,29.0
2012-09-17 01:06:00,0.0,1.9317,0.0008,391.38,0.32,213.6,31.9,138.04,31.52,24.66,36.52,0.92,-26.09,16.78,-46,42,-945,23.3,20.5,-0.6,23.5,1.9,-29.2,5.73,2.63,-27.5,29.0
2012-09-17 01:07:00,0.0,1.9317,0.0008,391.57,0.27,213.9,29.2,138.04,31.52,24.65,36.51,0.91,-26.09,16.87,-46,42,-945,23.3,20.4,-0.7,23.5,1.9,-29.2,5.73,2.59,-27.5,28.9
2012-09-17 01:08:00,0.0,1.9311,0.0011,391.44,0.33,222.5,32.0,138.05,31.52,24.65,36.51,0.91,-26.09,16.96,-46,42,-945,23.3,20.3,-0.8,23.5,1.9,-29.1,5.73,2.61,-27.5,29.0
2012-09-17 01:09:00,0.0,1.9314,0.0008,391.54,0.27,211.8,29.5,138.04,31.52,24.65,36.51,0.92,-26.10,17.04,-46,42,-945,23.3,19.9,-1.0,23.5,1.9,-29.1,5.73,2.64,-27.5,29.0
2012-09-17 01:10:00,0.0,1.9309,0.0008,391.51,0.34,211.4,30.8,138.04,31.51,24.66,36.51,0.92,-26.09,17.13,-46,42,-945,23.3,20.1,-0.8,23.4,1.9,-29.2,5.73,2.59,-27.5,29.0
2012-09-17 01:11:00,0.0,1.9310,0.0009,391.48,0.27,224.3,34.5,138.04,31.51,24.66,36.51,0.90,-26.09,17.20,-46,42,-945,23.3,20.1,-0.9,23.5,1.9,-29.1,5.73,2.60,-27.5,29.1
2012-09-17 01:12:00,0.0,1.9312,0.0009,391.44,0.31,211.2,31.0,138.04,31.51,24.66,36.51,0.93,-26.09,17.28,-46,42,-945,23.3,20.2,-0.8,23.5,1.9,-29.2,5.73,2.63,-27.5,29.1
2012-09-17 01:13:00,0.0,1.9315,0.0009,391.61,0.27,216.1,34.2,138.04,31.52,24.66,36.51,0.91,-26.09,17.35,-46,42,-945,23.3,20.1,-0.8,23.5,1.9,-29.2,5.73,2.60,-27.5,29.1
2012-09-17 01:14:00,0.0,1.9318,0.0009,391.57,0.33,222.5,31.7,138.04,31.52,24.65,36.51,0.92,-26.09,17.42,-46,42,-945,23.3,20.2,-0.8,23.5,1.9,-29.1,5.73,2.59,-27.5,29.1
2012-09-17 01:15:00,0.0,1.9314,0.0010,391.54,0.27,220.1,28.9,138.04,31.52,24.66,36.51,0.92,-26.09,17.49,-46,42,-945,23.3,20.1,-0.9,23.5,1.9,-29.1,5.73,2.63,-27.5,29.0
2012-09-17 01:16:00,0.0,1.9323,0.0009,391.55,0.24,222.1,30.5,138.04,31.52,24.65,36.51,0.91,-26.09,17.55,-46,42,-945,23.3,20.1,-0.8,23.5,1.9,-29.1,5.73,2.61,-27.5,29.0
2012-09-17 01:17:00,0.0,1.9320,0.0007,391.57,0.30,216.6,30.7,138.04,31.52,24.65,36.50,0.92,-26.09,17.61,-46,42,-945,23.3,20.2,-0.8,23.5,1.9,-29.1,5.73,2.59,-27.5,29.0
2012-09-17 01:18:00,0.0,1.9318,0.0008,391.55,0.30,222.2,26.8,138.05,31.52,24.65,36.51,0.93,-26.10,17.67,-46,42,-945,23.3,20.3,-0.7,23.5,1.9,-29.1,5.73,2.63,-27.5,29.0
2012-09-17 01:19:00,0.0,1.9320,0.0008,391.47,0.26,214.0,33.8,138.05,31.52,24.65,36.51,0.92,-26.09,17.73,-46,42,-945,23.3,20.5,-0.6,23.5,1.9,-29.2,5.73,2.62,-27.5,29.0
2012-09-17 01:20:00,0.0,1.9321,0.0011,391.50,0.32,215.3,26.9,138.04,31.52,24.65,36.51,0.93,-26.09,17.78,-46,42,-945,23.3,20.3,-0.7,23.5,1.9,-29.1,5.73,2.58,-27.5,29.0
2012-09-17 01:21:00,0.0,1.9319,0.0008,391.59,0.29,215.5,30.0,138.04,31.52,24.65,36.51,0.93,-26.09,17.83,-46,42,-945,23.3,20.5,-0.6,23.5,1.9,-29.1,5.73,2.61,-27.5,29.0
2012-09-17 01:22:00,0.0,1.9316,0.0008,391.50,0.34,222.4,31.8,138.04,31.52,24.65,36.51,0.94,-26.09,17.88,-46,42,-945,23.3,20.1,-0.8,23.5,1.9,-29.2,5.73,2.63,-27.5,29.0
2012-09-17 01:23:00,0.0,1.9320,0.0008,391.58,0.29,217.8,28.5,138.05,31.52,24.65,36.50,0.94,-26.09,17.93,-47,42,-945,23.3,20.0,-0.9,23.5,1.9,-29.2,5.73,2.58,-27.5,29.0
2012-09-17 01:24:00,0.0,1.9319,0.0009,391.52,0.25,214.3,30.6,138.05,31.52,24.65,36.51,0.94,-26.09,17.97,-46,42,-945,23.3,20.2,-0.8,23.5,1.9,-29.1,5.73,2.61,-27.5,29.0
2012-09-17 01:25:00,0.0,1.9316,0.0010,391.55,0.30,215.8,27.4,138.05,31.52,24.66,36.51,0.93,-26.09,18.01,-46,42,-945,23.3,20.1,-0.8,23.5,1.9,-29.2,5.73,2.63,-27.5,29.0
2012-09-17 01:26:00,0.0,1.9318,0.0007,391.53,0.31,218.5,34.0,138.04,31.52,24.65,36.51,0.94,-26.09,18.05,-47,42,-945,23.3,20.1,-0.8,23.5,1.9,-29.2,5.73,2.59,-27.5,29.0
2012-09-17 01:27:00,0.0,1.9317,0.0007,391.53,0.24,214.6,32.4,138.05,31.52,24.65,36.50,0.93,-26.08,18.09,-46,42,-945,23.3,20.2,-0.8,23.5,1.9,-29.1,5.73,2.60,-27.5,29.0
2012-09-17 01:28:00,0.0,1.9312,0.0009,391.48,0.28,214.2,31.3,138.05,31.52,24.66,36.51,0.94,-26.09,18.13,-47,42,-945,23.3,19.9,-1.0,23.5,1.9,-29.2,5.73,2.64,-27.5,29.1
2012-09-17 01:29:00,0.0,1.9313,0.0008,391.49,0.26,213.9,32.9,138.05,31.52,24.66,36.51,0.93,-26.09,18.17,-46,42,-945,23.3,20.1,-0.9,23.5,1.9,-29.2,5.73,2.59,-27.5,29.0
2012-09-17 01:30:00,0.0,1.9314,0.0009,391.55,0.29,222.7,32.0,138.05,31.52,24.66,36.51,0.92,-26.08,18.20,-46,42,-945,23.3,19.8,-1.0,23.5,1.9,-29.2,5.73,2.59,-27.5,29.1
2012-09-17 01:31:00,0.0,1.9322,0.0010,391.52,0.26,217.4,29.1,138.05,31.52,24.65,36.51,0.91,-26.09,18.24,-47,42,-945,23.3,20.0,-0.9,23.5,1.9,-29.2,5.73,2.64,-27.5,29.0
2012-09-17 01:32:00,0.0,1.9319,0.0008,391.45,0.30,215.6,31.5,138.04,31.52,24.66,36.51,0.91,-26.09,18.26,-46,42,-945,23.3,19.9,-1.0,23.5,1.9,-29.2,5.73,2.61,-27.5,29.0
2012-09-17 01:33:00,0.0,1.9319,0.0011,391.43,0.30,212.0,29.7,138.04,31.52,24.65,36.52,0.90,-26.09,18.29,-46,42,-945,23.3,20.0,-0.9,23.5,1.9,-29.2,5.73,2.59,-27.6,29.0
2012-09-17 01:34:00,0.0,1.9311,0.0010,391.55,0.30,218.5,30.9,138.04,31.52,24.65,36.50,0.91,-26.08,18.33,-47,42,-945,23.3,19.6,-1.2,23.5,1.9,-29.2,5.73,2.63,-27.5,29.0
2012-09-17 01:35:00,0.0,1.9307,0.0008,391.51,0.32,209.4,31.0,138.05,31.52,24.66,36.51,0.91,-26.09,18.35,-46,42,-945,23.3,19.7,-1.1,23.5,1.9,-29.2,5.73,2.61,-27.6,29.0
2012-09-17 01:36:00,0.0,1.9314,0.0010,391.44,0.27,214.0,31.1,138.05,31.52,24.65,36.51,0.91,-26.09,18.38,-47,42,-945,23.3,20.1,-0.9,23.5,1.9,-29.1,5.73,2.58,-27.6,29.0
2012-09-17 01:37:00,0.0,1.9317,0.0008,391.47,0.29,216.6,31.0,138.05,31.52,24.66,36.51,0.94,-26.08,18.40,-47,42,-945,23.3,20.1,-0.8,23.5,1.9,-29.1,5.73,2.62,-27.6,29.0
2012-09-17 01:38:00,0.0,1.9314,0.0009,391.50,0.31,212.5,26.6,138.05,31.52,24.66,36.51,0.92,-26.09,18.43,-46,42,-945,23.3,19.9,-1.0,23.5,1.9,-29.1,5.73,2.62,-27.6,29.0
2012-09-17 01:39:00,0.0,1.9312,0.0010,391.49,0.25,217.5,29.6,138.05,31.52,24.66,36.51,0.92,-26.09,18.45,-47,42,-945,23.3,19.9,-1.0,23.5,1.9,-29.2,5.73,2.58,-27.6,29.1
2012-09-17 01:40:00,0.0,1.9312,0.0007,391.50,0.27,209.8,32.5,138.05,31.52,24.65,36.50,0.92,-26.09,18.47,-46,42,-945,23.3,19.8,-1.1,23.5,1.9,-29.2,5.73,2.62,-27.6,29.0
2012-09-17 01:41:00,0.0,1.9306,0.0008,391.47,0.24,214.2,27.1,138.05,31.52,24.66,36.51,0.93,-26.08,18.50,-47,42,-945,23.3,19.9,-1.0,23.5,1.9,-29.1,5.73,2.63,-27.6,29.0
2012-09-17 01:42:00,0.0,1.9308,0.0009,391.45,0.30,207.4,26.4,138.05,31.52,24.65,36.51,0.93,-26.09,18.51,-47,42,-945,23.3,19.8,-1.0,23.5,1.9,-29.1,5.73,2.58,-27.6,29.0
2012-09-17 01:43:00,0.0,1.9313,0.0009,391.35,0.32,215.6,34.9,138.05,31.52,24.66,36.52,0.93,-26.09,18.53,-46,42,-945,23.3,19.5,-1.2,23.5,1.9,-29.2,5.73,2.61,-27.6,29.0
2012-09-17 01:44:00,0.0,1.9321,0.0009,391.46,0.27,212.5,22.7,138.05,31.52,24.65,36.52,0.94,-26.08,18.55,-47,42,-945,23.3,20.1,-0.8,23.5,1.9,-29.1,5.73,2.63,-27.6,29.0
2012-09-17 01:45:00,0.0,1.9322,0.0008,391.64,0.27,210.1,30.4,138.05,31.51,24.65,36.50,0.93,-26.08,18.57,-47,42,-945,23.3,20.2,-0.8,23.5,1.9,-29.1,5.73,2.59,-27.6,29.1
2012-09-17 01:46:00,0.0,1.9319,0.0008,391.46,0.29,220.5,33.7,138.05,31.51,24.65,36.51,0.93,-26.09,18.58,-46,42,-945,23.3,20.1,-0.8,23.5,1.9,-29.1,5.73,2.61,-27.6,29.1
2012-09-17 01:47:00,0.0,1.9318,0.0009,391.44,0.30,217.2,28.4,138.05,31.52,24.65,36.52,0.94,-26.08,18.60,-47,42,-945,23.3,19.7,-1.1,23.5,1.9,-29.1,5.73,2.63,-27.6,29.0
2012-09-17 01:48:00,0.0,1.9323,0.0009,391.48,0.37,220.1,31.6,138.05,31.52,24.65,36.51,0.94,-26.08,18.62,-46,42,-945,23.3,19.7,-1.1,23.5,1.9,-29.2,5.73,2.59,-27.6,29.0
2012-09-17 01:49:00,0.0,1.9323,0.0008,391.64,0.29,214.6,30.3,138.04,31.52,24.65,36.50,0.94,-26.08,18.63,-47,42,-945,23.3,20.1,-0.8,23.5,1.9,-29.1,5.73,2.59,-27.6,29.0
2012-09-17 01:50:00,0.0,1.9324,0.0009,391.54,0.25,216.3,31.4,138.04,31.51,24.65,36.51,0.94,-26.08,18.65,-47,42,-945,23.3,20.0,-0.9,23.5,1.9,-29.1,5.73,2.63,-27.6,29.0
2012-09-17 01:51:00,0.0,1.9324,0.0009,391.51,0.27,207.5,30.0,138.05,31.51,24.65,36.51,0.94,-26.08,18.67,-46,42,-945,23.3,20.0,-0.9,23.5,1.9,-29.2,5.73,2.60,-27.6,29.0
2012-09-17 01:52:00,0.0,1.9322,0.0009,391.56,0.31,212.4,26.3,138.05,31.51,24.65,36.51,0.99,-26.08,18.53,-47,42,-945,23.3,19.7,-1.1,23.5,1.9,-29.2,5.73,2.59,-27.6,29.0
2012-09-17 01:53:00,0.0,1.9318,0.0009,391.50,0.25,216.0,32.2,138.05,31.51,24.66,36.51,1.04,-26.08,17.00,-47,42,-945,23.3,19.9,-1.0,23.5,1.9,-29.1,5.73,2.63,-27.6,29.0
2012-09-17 01:54:00,0.0,1.9316,0.0008,391.55,0.23,210.4,29.6,138.05,31.50,24.66,36.50,1.12,-26.08,14.73,-47,42,-945,23.3,20.4,-0.7,23.5,1.9,-29.2,5.73,2.59,-27.6,29.0
2012-09-17 01:55:00,0.0,1.9316,0.0008,391.37,0.31,210.1,31.8,138.05,31.50,24.66,36.51,0.97,-26.09,12.34,-47,42,-945,23.4,20.2,-0.8,23.5,1.9,-29.1,5.73,2.61,-27.6,29.0
2012-09-17 01:56:00,0.0,1.9315,0.0009,391.45,0.26,220.5,31.1,138.05,31.51,24.66,36.51,0.98,-26.10,10.00,-47,42,-945,23.4,19.9,-1.0,23.5,1.9,-29.3,5.73,2.63,-27.6,28.9
2012-09-17 01:57:00,0.0,1.9320,0.0008,391.49,0.31,206.0,31.2,138.05,31.51,24.66,36.51,1.09,-26.11,7.74,-47,42,-945,23.4,20.1,-0.8,23.5,1.9,-29.3,5.73,2.58,-27.6,28.9
2012-09-17 01:58:00,0.0,1.9324,0.0008,391.48,0.26,210.5,28.1,138.05,31.50,24.65,36.51,1.03,-26.12,5.57,-47,42,-945,23.4,19.9,-0.9,23.5,1.9,-29.2,5.73,2.62,-27.6,28.9
2012-09-17 01:59:00,0.0,1.9317,0.0009,391.50,0.30,220.5,28.0,138.05,31.50,24.65,36.51,0.97,-26.13,3.52,-47,42,-945,23.4,19.8,-1.0,23.5,1.9,-29.3,5.73,2.63,-27.6,29.0
2012-09-17 02:00:00,0.0,1.9315,0.0010,391.47,0.30,216.6,33.3,138.05,31.51,24.66,36.51,1.07,-26.13,1.57,-47,42,-945,23.4,20.0,-0.9,23.5,1.9,-29.2,5.73,2.58,-27.6,28.9
2012-09-17 02:01:00,0.0,1.9317,0.0009,391.43,0.34,212.7,31.8,138.05,31.50,24.65,36.51,1.04,-26.13,-0.28,-47,42,-945,23.4,20.3,-0.6,23.5,1.9,-29.2,5.73,2.64,-27.6,28.9
2012-09-17 02:02:00,0.0,1.9321,0.0010,391.46,0.29,212.9,28.2,138.05,31.50,24.65,36.51,0.97,-26.14,-1.87,-47,42,-945,23.4,20.7,-0.4,23.5,1.9,-29.3,5.73,2.60,-27.6,28.9
2012-09-17 02:03:00,0.0,1.9316,0.0009,391.47,0.27,207.9,33.9,138.05,31.50,24.66,36.51,1.01,-26.14,-3.20,-47,42,-945,23.4,20.0,-0.8,23.5,1.9,-29.3,5.73,2.59,-27.6,28.9
2012-09-17 02:04:00,0.0,1.9316,0.0009,391.39,0.26,209.6,30.8,138.05,31.50,24.65,36.51,1.09,-26.15,-4.74,-47,42,-945,23.4,19.7,-1.0,23.5,1.9,-29.2,5.73,2.64,-27.6,28.9
2012-09-17 02:05:00,0.0,1.9315,0.0008,391.44,0.29,213.1,29.0,138.05,31.50,24.66,36.51,1.01,-26.15,-6.12,-47,42,-945,23.4,19.6,-1.1,23.5,1.9,-29.3,5.73,2.59,-27.6,28.8
2012-09-17 02:06:00,0.0,1.9316,0.0008,391.46,0.28,217.5,29.8,138.05,31.50,24.65,36.51,0.97,-26.16,-7.45,-47,42,-945,23.4,19.6,-1.1,23.5,1.9,-29.3,5.73,2.62,-27.6,28.8
2012-09-17 02:07:00,0.0,1.9321,0.0009,391.44,0.25,221.6,25.4,138.05,31.50,24.65,36.51,1.06,-26.17,-8.72,-47,42,-945,23.4,20.1,-0.8,23.6,1.9,-29.2,5.73,2.62,-27.6,28.9
2012-09-17 02:08:00,0.0,1.9312,0.0009,391.43,0.33,207.7,23.9,138.05,31.50,24.65,36.50,1.05,-26.17,-9.85,-47,42,-945,23.4,19.6,-1.1,23.5,1.9,-29.3,5.73,2.59,-27.6,28.9
2012-09-17 02:09:00,0.0,1.9310,0.0008,391.33,0.26,216.0,32.1,138.05,31.49,24.66,36.51,0.96,-26.18,-10.97,-47,42,-945,23.4,19.9,-0.9,23.5,1.9,-29.3,5.73,2.64,-27.7,28.9
2012-09-17 02:10:00,0.0,1.9313,0.0008,391.41,0.26,217.0,28.9,138.05,31.49,24.65,36.51,0.99,-26.19,-12.04,-47,42,-945,23.4,20.3,-0.6,23.5,1.9,-29.2,5.73,2.59,-27.7,28.9
2012-09-17 02:11:00,0.0,1.9310,0.0009,391.41,0.30,209.2,32.1,138.05,31.48,24.66,36.51,1.07,-26.21,-13.09,-47,42,-945,23.5,20.2,-0.7,23.5,1.9,-29.3,5.73,2.62,-27.7,28.8
2012-09-17 02:12:00,0.0,1.9305,0.0009,391.37,0.29,219.7,28.4,138.05,31.48,24.66,36.51,1.01,-26.22,-14.08,-47,42,-945,23.5,19.8,-1.0,23.5,1.9,-29.3,5.73,2.62,-27.7,28.8
2012-09-17 02:13:00,0.0,1.9297,0.0009,391.38,0.28,212.5,29.1,138.05,31.48,24.66,36.50,0.95,-26.23,-15.01,-47,42,-945,23.5,19.4,-1.2,23.6,1.9,-29.3,5.73,2.58,-27.7,28.8
2012-09-17 02:14:00,0.0,1.9308,0.0010,391.40,0.28,214.5,28.0,138.05,31.48,24.65,36.51,1.01,-26.24,-15.84,-47,42,-945,23.5,19.3,-1.3,23.5,1.9,-29.2,5.73,2.64,-27.7,28.8
2012-09-17 02:15:00,0.0,1.9303,0.0011,391.35,0.28,208.0,30.6,138.06,31.47,24.66,36.51,1.08,-26.25,-16.65,-47,42,-945,23.5,18.9,-1.6,23.5,1.9,-29.3,5.73,2.59,-27.7,28.8
2012-09-17 02:16:00,0.0,1.9303,0.0009,391.29,0.32,216.4,30.4,138.05,31.47,24.66,36.51,1.00,-26.27,-17.44,-47,42,-945,23.5,18.8,-1.7,23.6,1.8,-29.5,5.73,2.62,-27.7,28.8
2012-09-17 02:17:00,0.0,1.9299,0.0010,391.38,0.26,206.2,31.1,138.05,31.47,24.65,36.50,0.96,-26.29,-18.15,-47,42,-945,23.5,18.5,-1.8,23.6,1.8,-29.3,5.73,2.63,-27.7,28.9
2012-09-17 02:18:00,0.0,1.9302,0.0008,391.43,0.26,208.8,34.0,138.05,31.47,24.65,36.51,1.02,-26.29,-18.78,-47,42,-945,23.5,18.9,-1.5,23.5,1.8,-29.4,5.73,2.59,-27.7,28.8
2012-09-17 02:19:00,0.0,1.9305,0.0010,391.43,0.25,215.2,29.7,138.05,31.47,24.66,36.50,1.07,-26.31,-19.43,-47,42,-945,23.4,18.9,-1.6,23.6,1.8,-29.4,5.73,2.64,-27.8,28.8
2012-09-17 02:20:00,0.0,1.9309,0.0009,391.45,0.30,215.2,33.1,138.05,31.47,24.66,36.51,0.98,-26.32,-20.06,-47,42,-945,23.5,19.4,-1.2,23.6,1.8,-29.4,5.73,2.59,-27.8,28.8